Precipitable_Water
1.48 1.51 1.47 1.48 1.51 1.51 1.57 1.62 1.65 1.77 1.83 1.78 1.70 1.51 1.18 1.20 1.19 1.35 1.34 1.27 1.11 1.06 1.07 0.97 0.88 0.89 0.88 0.86 0.79 0.74 0.70 0.69 0.73 0.83 0.90 0.90 0.81 0.72 0.70 0.67 0.71 0.83 0.99
1.43 1.47 1.41 1.44 1.49 1.49 1.52 1.64 1.76 1.74 1.82 1.86 1.86 1.75 1.35 1.34 1.34 1.31 1.24 1.22 1.16 1.07 1.00 1.02 1.00 0.98 0.96 0.95 0.90 0.83 0.79 0.75 0.64 0.63 0.69 0.71 0.73 0.79 0.77 0.74 0.79 0.70 0.75
1.48 1.44 1.40 1.39 1.45 1.51 1.57 1.64 1.79 1.82 1.77 1.85 1.83 1.77 1.62 1.34 1.40 1.43 1.39 1.32 1.28 1.10 1.03 1.02 1.04 1.00 0.97 0.93 0.88 0.85 0.65 0.75 0.74 0.66 0.66 0.73 0.73 0.75 0.70 0.72 0.72 0.75 0.78
1.44 1.44 1.39 1.37 1.40 1.46 1.58 1.69 1.77 1.88 1.90 1.92 1.95 1.99 1.89 1.70 1.50 1.50 1.47 1.41 1.30 1.16 1.13 1.08 1.19 1.12 1.03 0.99 0.93 0.93 0.81 0.76 0.77 0.69 0.62 0.63 0.68 0.67 0.67 0.64 0.63 0.74 0.71
1.40 1.37 1.42 1.49 1.53 1.56 1.63 1.78 1.94 2.08 2.14 2.19 2.20 2.22 2.26 2.12 1.80 1.71 1.60 1.49 1.34 1.23 1.21 1.20 1.27 1.19 1.10 0.95 0.82 0.73 0.68 0.67 0.66 0.62 0.58 0.62 0.61 0.58 0.61 0.67 0.62 0.74 0.73
1.34 1.33 1.48 1.59 1.68 1.72 1.80 2.10 2.24 2.20 2.22 2.27 2.28 2.02 1.89 1.92 2.00 1.93 1.73 1.60 1.48 1.37 1.24 1.22 1.23 1.29 1.18 1.13 0.92 0.81 0.77 0.62 0.53 0.52 0.58 0.55 0.64 0.60 0.66 0.63 0.65 0.72 0.60
1.48 1.53 1.64 1.70 1.80 1.89 1.89 1.85 1.83 1.96 1.99 1.82 1.80 1.69 1.93 1.82 1.86 1.97 1.85 1.70 1.57 1.34 1.34 1.27 1.36 1.36 1.28 1.13 0.86 0.76 0.74 0.77 0.72 0.70 0.61 0.58 0.58 0.68 0.66 0.64 0.65 0.64 0.65
1.50 1.61 1.72 1.83 1.82 1.82 1.85 1.84 1.87 1.85 1.77 1.52 1.50 1.73 1.86 1.93 1.98 1.85 1.74 1.68 1.44 1.37 1.42 1.35 1.23 1.21 1.08 0.81 0.59 0.61 0.71 0.77 0.79 0.79 0.76 0.73 0.74 0.73 0.71 0.77 0.81 0.79 0.79
1.65 1.69 1.76 1.76 1.79 1.83 1.84 1.89 1.86 1.80 1.70 1.55 1.60 1.73 1.73 1.79 1.83 1.71 1.62 1.45 1.35 1.41 1.36 1.27 1.19 1.10 0.95 0.55 0.56 0.66 0.68 0.74 0.83 0.86 0.83 0.75 0.73 0.78 0.81 0.85 0.84 0.81 0.76
1.75 1.85 1.90 1.89 1.87 1.88 1.90 1.83 1.87 1.80 1.58 1.48 1.60 1.63 1.69 1.67 1.65 1.62 1.33 1.34 1.40 1.25 1.20 1.11 1.02 0.96 0.70 0.52 0.53 0.60 0.59 0.64 0.66 0.65 0.61 0.66 0.79 0.82 0.88 0.95 0.91 0.82 0.88
1.93 1.97 1.96 2.02 1.95 1.94 1.86 1.91 1.86 1.58 1.59 1.58 1.56 1.64 1.65 1.62 1.56 1.23 1.35 1.33 1.21 1.16 1.12 1.14 1.03 0.70 0.55 0.51 0.53 0.55 0.56 0.63 0.63 0.63 0.66 0.75 0.84 0.88 0.91 0.96 0.99 0.96 0.92
1.97 1.98 2.00 1.98 1.92 1.94 1.90 1.89 1.74 1.57 1.51 1.48 1.49 1.54 1.53 1.44 1.18 1.20 1.31 1.24 1.25 1.09 1.10 1.17 0.86 0.70 0.55 0.52 0.55 0.61 0.66 0.70 0.68 0.73 0.75 0.77 0.79 0.83 0.92 0.98 1.02 1.00 0.97
1.89 1.90 1.93 1.91 1.92 1.93 1.86 1.69 1.55 1.50 1.48 1.45 1.46 1.38 1.33 1.21 1.12 1.23 1.21 1.20 1.17 1.13 1.17 0.97 0.77 0.70 0.54 0.58 0.66 0.70 0.72 0.72 0.70 0.74 0.66 0.74 0.82 0.88 0.90 0.90 0.94 0.97 0.96
1.82 1.82 1.84 1.84 1.77 1.70 1.64 1.52 1.43 1.44 1.47 1.47 1.43 1.33 1.27 1.14 1.18 1.21 1.12 1.12 1.10 1.07 0.91 0.72 0.68 0.59 0.64 0.70 0.77 0.79 0.77 0.77 0.71 0.66 0.65 0.77 0.87 0.87 0.88 0.92 0.88 0.87 0.83
1.56 1.57 1.60 1.57 1.56 1.52 1.45 1.47 1.42 1.53 1.55 1.49 1.46 1.40 1.29 1.20 1.22 1.21 1.14 1.07 1.09 1.05 0.88 0.76 0.71 0.67 0.68 0.74 0.78 0.78 0.80 0.71 0.60 0.56 0.67 0.81 0.85 0.86 0.87 0.94 0.89 0.83 0.77
1.46 1.53 1.59 1.54 1.46 1.40 1.37 1.38 1.49 1.61 1.67 1.67 1.65 1.51 1.39 1.40 1.31 1.20 1.14 1.20 1.19 1.01 0.78 0.59 0.59 0.61 0.64 0.70 0.72 0.69 0.63 0.54 0.57 0.58 0.67 0.79 0.84 0.86 0.87 0.90 0.88 0.84 0.80
1.44 1.44 1.36 1.38 1.34 1.34 1.33 1.32 1.37 1.57 1.67 1.61 1.61 1.45 1.37 1.36 1.29 1.15 1.16 1.18 1.04 0.78 0.60 0.56 0.61 0.66 0.71 0.76 0.68 0.60 0.53 0.52 0.56 0.61 0.73 0.83 0.84 0.85 0.85 0.86 0.86 0.85 0.82
1.47 1.44 1.46 1.40 1.36 1.34 1.43 1.48 1.52 1.48 1.45 1.46 1.51 1.42 1.36 1.34 1.23 1.20 1.13 0.98 0.67 0.58 0.61 0.67 0.71 0.79 0.74 0.64 0.59 0.54 0.51 0.51 0.58 0.63 0.74 0.83 0.83 0.85 0.84 0.85 0.86 0.84 0.77
1.44 1.43 1.40 1.35 1.38 1.43 1.52 1.58 1.55 1.52 1.49 1.43 1.44 1.36 1.36 1.24 1.22 1.13 0.90 0.75 0.65 0.65 0.68 0.74 0.81 0.73 0.64 0.56 0.53 0.52 0.55 0.59 0.66 0.68 0.71 0.82 0.87 0.85 0.85 0.87 0.86 0.83 0.81
1.41 1.43 1.41 1.33 1.34 1.45 1.53 1.56 1.52 1.48 1.42 1.40 1.38 1.30 1.22 1.12 0.99 0.90 0.85 0.69 0.63 0.64 0.77 0.82 0.78 0.70 0.57 0.50 0.52 0.56 0.58 0.64 0.82 0.87 0.82 0.82 0.89 0.92 0.89 0.87 0.84 0.85 0.77
1.29 1.31 1.33 1.36 1.40 1.46 1.54 1.57 1.57 1.43 1.36 1.27 1.28 1.23 1.11 0.98 0.91 0.85 0.80 0.83 0.79 0.80 0.82 0.81 0.76 0.63 0.54 0.58 0.58 0.58 0.71 0.87 0.91 0.91 0.90 0.88 0.94 0.93 0.91 0.87 0.89 0.79 0.71
1.28 1.23 1.22 1.24 1.33 1.40 1.49 1.62 1.62 1.55 1.36 1.24 1.14 1.11 1.03 0.95 0.93 1.00 0.93 0.87 0.93 0.90 0.87 0.78 0.66 0.57 0.60 0.61 0.64 0.76 0.85 0.88 0.90 0.88 0.87 0.91 0.94 0.91 0.88 0.89 0.79 0.69 0.67
1.25 1.21 1.19 1.21 1.27 1.35 1.48 1.63 1.63 1.57 1.35 1.22 1.11 1.06 0.98 0.96 0.98 0.97 0.93 0.95 0.93 0.88 0.82 0.75 0.61 0.60 0.67 0.72 0.79 0.89 0.87 0.86 0.88 0.88 0.84 0.87 0.89 0.89 0.89 0.77 0.71 0.68 0.71
1.27 1.21 1.19 1.22 1.24 1.36 1.47 1.55 1.52 1.50 1.29 1.19 1.12 1.09 1.03 0.99 0.94 0.89 0.98 1.00 0.93 0.85 0.74 0.64 0.61 0.68 0.75 0.76 0.88 0.91 0.90 0.90 0.92 0.91 0.91 0.90 0.86 0.84 0.76 0.70 0.69 0.69 0.80
1.28 1.25 1.20 1.19 1.22 1.26 1.38 1.50 1.43 1.34 1.21 1.18 1.13 1.11 1.07 0.94 0.91 1.07 1.02 0.98 0.88 0.78 0.63 0.61 0.71 0.75 0.77 0.86 0.89 0.89 0.87 0.87 0.88 0.85 0.78 0.70 0.67 0.69 0.69 0.70 0.66 0.76 0.94
1.28 1.25 1.23 1.25 1.27 1.33 1.39 1.48 1.34 1.25 1.24 1.11 1.08 1.06 1.00 1.01 1.12 1.10 1.00 0.92 0.78 0.63 0.61 0.72 0.77 0.78 0.85 0.86 0.83 0.79 0.76 0.75 0.73 0.72 0.72 0.71 0.71 0.72 0.68 0.65 0.68 0.85 0.92
Wind_Speed
12 13 13 13 12 12 11 11 10 9 9 9 9 8 8 8 8 8 7 9 10 10 12 13 14 15 15 15 14 13 13 12 13 14 14 16 17 19 18 19 20 19 21
12 12 13 13 13 12 13 12 12 11 11 11 11 11 11 11 11 11 11 11 11 12 13 14 15 16 16 16 15 13 13 13 14 16 17 17 18 18 19 19 20 21 22
13 12 13 14 14 13 13 13 13 13 13 14 15 15 15 15 14 14 14 13 14 14 15 15 16 17 17 17 16 15 14 14 15 15 17 17 18 19 21 21 21 22 23
14 13 13 14 15 15 14 14 15 15 16 17 17 19 20 19 16 15 14 15 15 15 15 16 16 16 16 17 16 15 15 16 16 17 18 18 18 21 20 21 21 21 23
16 15 15 14 15 15 16 16 16 16 17 17 18 20 22 24 18 17 17 16 15 16 17 16 16 17 18 18 17 16 17 17 18 18 19 19 20 21 21 21 22 23 22
17 16 16 16 16 17 17 16 15 16 19 20 19 20 24 18 21 21 18 17 18 20 18 16 17 18 19 20 18 18 18 18 18 18 19 19 20 21 22 22 22 22 22
18 18 17 18 18 17 16 15 16 15 17 18 25 29 25 27 29 24 22 21 20 17 16 16 18 19 23 19 18 18 18 17 17 18 19 20 22 23 24 24 24 23 22
20 19 19 19 17 17 17 17 18 20 21 27 27 23 20 17 15 17 16 17 15 13 14 16 19 20 18 17 17 17 17 17 18 19 20 22 23 25 24 23 22 21 21
20 20 19 18 18 18 18 19 19 20 25 27 24 19 15 13 11 13 12 11 11 12 15 17 17 16 16 16 16 17 17 18 19 19 20 24 25 24 24 22 21 20 19
20 18 18 19 19 19 19 19 20 22 24 24 20 17 13 12 11 10 9 10 11 14 14 15 14 14 15 15 15 16 17 18 20 22 24 24 23 25 25 23 20 19 19
16 17 18 18 18 19 20 20 20 24 22 19 16 14 12 10 9 9 9 11 14 14 14 14 14 13 14 15 15 16 18 20 22 23 21 23 25 21 19 17 17 18 20
17 17 18 18 18 18 18 19 21 20 18 16 14 12 11 10 9 10 11 12 13 13 15 13 13 14 15 15 16 17 18 19 20 21 22 22 22 21 20 19 18 20 19
18 18 18 18 19 20 19 20 20 19 17 15 13 12 11 11 11 12 13 12 13 14 14 14 13 15 14 15 17 18 19 20 20 21 22 22 20 21 22 21 19 16 16
16 16 17 19 20 20 21 21 20 19 17 16 14 12 11 11 12 13 13 14 14 15 16 15 14 14 14 16 18 19 19 20 20 21 21 21 21 21 20 19 17 17 18
17 18 19 19 20 20 20 20 20 20 18 15 14 13 13 13 14 13 13 13 14 14 13 12 13 13 15 16 17 18 18 19 20 22 20 21 20 20 20 17 17 17 17
17 18 19 19 20 20 20 21 20 18 16 16 15 14 14 13 12 12 12 12 13 12 12 12 12 14 15 16 17 18 19 20 20 21 23 22 20 20 19 18 18 19 19
18 19 20 21 21 22 21 20 17 16 15 14 15 14 13 13 12 12 12 12 12 12 12 12 12 13 15 16 17 18 20 20 22 22 20 20 20 20 19 19 19 19 20
21 21 21 22 22 21 19 18 17 17 16 15 14 13 13 13 12 12 12 12 11 11 11 12 13 14 15 16 19 20 21 22 22 22 22 22 21 20 19 19 19 19 21
21 22 22 22 21 20 19 18 18 18 17 16 15 14 14 13 13 13 12 11 11 12 13 13 12 14 16 18 20 21 22 23 22 23 23 23 21 19 19 19 19 20 21
21 22 20 20 20 20 20 19 18 18 17 16 17 16 15 14 13 12 12 11 12 11 12 11 13 16 18 19 20 20 22 24 23 24 23 23 18 18 19 18 20 20 20
20 20 20 19 19 20 21 20 20 19 17 16 15 16 15 14 13 12 12 11 11 11 10 12 14 17 18 18 20 22 23 22 23 23 22 17 17 18 18 18 19 20 20
17 18 19 20 20 20 21 21 21 19 17 15 15 15 15 14 12 12 12 12 11 10 11 13 15 16 17 19 20 21 22 22 22 20 18 16 17 18 18 18 19 19 20
17 19 19 19 20 20 21 22 21 20 17 16 15 15 15 14 13 12 11 9 9 11 12 14 15 16 18 20 21 21 21 19 19 19 17 17 18 18 17 18 18 19 21
18 17 17 17 18 18 20 21 20 21 18 16 15 14 15 15 12 11 9 9 10 11 13 14 15 17 19 21 20 20 19 19 19 18 18 17 17 17 18 18 19 20 21
15 15 14 15 15 17 19 19 19 20 18 17 16 14 14 14 12 10 9 9 10 11 12 14 15 18 20 19 18 18 19 18 17 17 17 17 17 17 17 18 19 18 20
15 15 15 14 14 15 16 16 17 19 18 16 16 15 12 12 10 9 8 9 9 10 13 14 16 18 17 17 16 17 17 17 17 17 17 18 17 17 16 16 16 16 15
Wind_Direction
224 227 230 234 239 245 250 252 258 265 271 279 284 285 280 281 285 297 302 307 316 320 326 331 334 332 330 330 324 319 312 298 294 294 297 296 298 300 298 296 288 284 280
227 229 229 233 237 243 246 253 257 263 268 277 279 282 279 277 280 285 286 293 302 308 313 318 325 326 325 327 323 323 316 307 298 298 298 298 301 299 300 297 289 287 280
225 231 233 236 239 246 252 255 259 266 272 277 276 275 275 275 276 279 281 286 294 299 305 311 317 320 322 321 318 317 316 312 308 306 303 303 305 302 302 297 293 289 284
229 235 240 240 244 248 254 256 260 266 271 276 278 278 275 270 268 275 280 282 286 292 297 303 312 318 322 324 318 314 313 311 310 309 308 307 306 308 304 302 298 294 291
234 240 243 246 248 252 257 260 265 267 272 277 280 288 281 276 260 267 274 278 281 288 294 293 301 310 316 318 314 312 310 309 310 311 309 310 309 308 306 304 301 298 292
238 243 248 250 253 258 263 265 269 273 277 275 277 295 294 294 253 274 270 271 280 283 281 286 295 304 310 311 309 309 310 311 311 312 312 312 311 310 308 305 302 299 295
244 247 250 253 256 261 261 266 273 281 289 339 312 303 286 288 263 256 273 269 279 276 274 284 293 302 308 303 304 307 309 310 312 314 313 312 312 311 310 307 302 299 295
246 249 251 253 255 257 262 267 274 281 294 310 317 312 300 296 267 259 266 270 273 269 276 287 294 302 307 307 308 309 310 310 310 311 312 313 314 312 308 306 304 300 299
248 247 249 250 253 258 264 268 278 287 300 309 311 307 301 287 270 265 264 262 262 274 288 296 297 299 303 308 310 312 314 315 317 310 313 314 314 312 309 304 301 299 301
245 247 248 249 253 260 263 272 282 292 302 304 306 299 299 289 274 261 259 264 271 286 291 299 300 300 304 308 311 313 315 316 318 316 316 316 315 313 308 299 293 293 298
244 247 249 251 256 262 267 274 281 294 297 299 298 301 292 281 274 255 266 277 281 286 290 295 298 303 305 307 309 312 314 317 318 317 318 319 321 323 322 313 299 293 296
247 247 249 254 260 265 268 273 286 291 292 293 292 291 281 273 264 262 274 284 286 288 296 296 293 299 302 305 310 313 315 318 321 319 320 322 321 321 319 314 306 301 296
249 250 252 256 262 266 270 276 281 282 285 283 283 284 274 271 264 268 277 279 287 292 300 296 294 297 301 306 308 312 315 316 318 318 321 319 319 318 316 312 309 305 300
250 251 255 260 266 267 272 275 275 276 275 271 269 272 271 269 269 274 275 281 286 290 295 292 293 297 301 307 310 312 314 315 315 317 321 319 318 319 320 316 313 311 304
255 256 260 264 268 270 273 272 271 273 267 261 262 265 266 269 271 271 276 282 287 287 290 291 293 297 303 310 314 315 317 319 318 318 320 320 318 317 318 315 313 313 309
260 262 262 265 268 270 271 273 271 264 257 259 260 265 266 269 273 270 276 283 286 281 287 292 295 300 306 313 317 319 320 322 322 321 319 318 317 315 315 313 311 310 309
263 265 267 268 270 271 269 264 258 253 253 261 256 262 263 263 266 269 275 282 283 281 285 291 295 300 307 313 317 320 321 321 322 323 322 320 317 314 313 313 312 311 313
267 273 269 270 270 265 259 254 250 246 248 252 257 259 261 261 262 269 276 278 277 276 285 293 294 302 311 315 316 319 319 319 320 318 318 317 315 313 312 313 314 314 314
270 270 271 269 264 258 253 252 245 244 245 248 249 253 256 258 263 269 272 273 272 280 284 287 294 305 311 313 315 317 318 319 317 317 316 314 311 310 312 313 316 314 313
269 270 269 264 259 253 248 246 241 242 244 248 249 248 248 252 259 263 265 268 277 279 289 290 298 306 311 312 314 317 318 319 317 317 315 314 306 309 312 315 317 316 315
270 269 264 261 256 253 249 242 241 241 243 245 243 240 240 247 254 256 262 266 275 280 290 294 303 310 313 316 317 317 319 319 319 319 318 314 311 312 312 316 318 318 319
270 270 267 259 256 253 248 246 239 237 234 241 238 235 234 243 249 254 261 264 272 279 291 300 306 311 314 317 319 319 319 319 321 323 321 316 315 315 315 317 318 320 319
276 274 269 263 257 252 249 240 236 233 230 240 231 231 234 242 251 256 259 262 268 285 296 304 308 312 315 318 320 320 320 320 321 322 321 318 318 317 317 318 319 320 322
277 276 270 263 255 252 244 236 235 229 229 227 230 230 236 239 243 248 253 263 277 291 301 307 311 315 317 319 319 320 321 320 320 320 321 319 319 318 318 319 319 320 322
272 272 270 264 260 249 244 238 229 221 222 229 224 229 236 229 232 240 256 268 282 295 303 310 313 317 320 321 321 323 324 325 323 322 323 322 320 320 319 321 324 325 328
268 268 268 264 258 247 236 228 217 215 219 218 220 220 220 220 222 238 260 271 285 295 305 312 318 322 322 324 326 328 330 329 327 326 324 322 320 319 321 323 325 332 339